Overview Statistics Trail Chart Weather Telemetry Raw packets
 

This is the latest recevied weather packets stored in our database for station/object KE8WMS. If no packets are shown the sender has not sent any weather packets the latest 10 day(s).

<< 98 99 100 101 102 103 104 >>
Time Temp. Humidity Pressure Rain* Wind** Luminosity Snow
1777087274 13.89° C 99% 1004.5 hPa 1.27 mm - 0 W/m² -
1777086969 13.89° C 99% 1004.7 hPa 3.05 mm - 0 W/m² -
1777086665 13.89° C 99% 1004.4 hPa 4.83 mm - 0 W/m² -
1777086360 13.89° C 99% 1004.4 hPa 4.83 mm - 0 W/m² -
1777086056 13.89° C 99% 1004.7 hPa 7.11 mm - 0 W/m² -
1777085753 13.89° C 99% 1004.8 hPa 7.87 mm - 0 W/m² -
1777085448 13.89° C 99% 1005 hPa 4.83 mm - 0 W/m² -
1777085145 13.89° C 99% 1004.9 hPa 6.1 mm - 0 W/m² -
1777084841 13.89° C 99% 1005 hPa 7.87 mm - 0 W/m² -
1777084537 13.89° C 99% 1005 hPa 4.32 mm - 0 W/m² -
1777084232 13.89° C 99% 1005.1 hPa 4.32 mm - 0 W/m² -
1777083928 13.89° C 99% 1004.9 hPa 4.83 mm - 0 W/m² -
1777083625 13.89° C 99% 1004.8 hPa 3.56 mm - 0 W/m² -
1777083321 13.89° C 99% 1004.6 hPa 4.83 mm - 0 W/m² -
1777083017 13.89° C 99% 1004.4 hPa 6.1 mm - 0 W/m² -
1777082712 13.33° C 99% 1004.4 hPa 4.32 mm - 0 W/m² -
1777082409 13.33° C 99% 1004.3 hPa 4.32 mm - 0 W/m² -
1777082108 13.33° C 99% 1004.2 hPa 4.83 mm - 0 W/m² -
1777081804 13.33° C 99% 1004.4 hPa 4.83 mm - 0 W/m² -
1777081498 13.33° C 99% 1004.5 hPa 4.32 mm - 0 W/m² -
1777081195 13.33° C 99% 1004.3 hPa 1.27 mm - 0 W/m² -
1777080894 13.33° C 98% 1004.3 hPa 1.78 mm - 0 W/m² -
1777080589 13.89° C 99% 1004.1 hPa 1.78 mm - 0 W/m² -
1777080285 13.89° C 99% 1004.2 hPa 0 mm - 0 W/m² -
1777079984 13.89° C 98% 1004.2 hPa 1.78 mm - 0 W/m² -

* Rain latest hour (hover to see other rain measurements)
** Current wind speed in m/s (hover to see current wind gust speed)